#timestamp,LO_Frequency,Hit 
1499493615.5,286047037.1,N
1499493635.4,286047037.0,N
1499493655.2,286047036.9,N
1499493675.0,286047037.6,N
1499493675.9,286047037.6,N
1499493695.8,286047037.8,N
1499493715.6,286047035.7,N
1499493735.4,286047035.2,N
1499493755.2,286047035.0,N
1499493775.1,286047036.2,N
1499493776.0,286047036.2,N
1499493795.8,286047037.8,N
1499493815.6,286047035.0,N
1499493835.5,286047033.9,N
1499493855.3,286047033.9,N
1499493875.1,286047033.3,N
1499493895.9,286047036.0,N
1499493915.7,286047033.8,N
1499493935.5,286047035.2,N
1499493955.4,286047037.7,N
1499493975.2,286047037.8,N
1499493995.0,286047037.5,N
1499493995.9,286047037.5,N
1499494015.8,286047034.0,N
1499494035.6,286047034.1,N
1499494055.4,286047034.1,N
1499494075.3,286047031.7,N
1499494095.1,286047034.5,N
1499494096.0,286047034.5,N
1499494115.8,286047034.0,N
1499494135.7,286047031.7,N
1499494155.5,286047034.0,N
1499494175.3,286047036.3,N
1499494195.1,286047033.9,N
1499494215.9,286047036.0,N
1499494235.7,286047034.6,N
1499494255.5,286047033.3,N
1499494275.4,286047035.9,N
1499494295.2,286047034.0,N
1499494315.0,286047033.4,N
1499494315.9,286047033.4,N
1499494335.8,286047036.4,N
1499494355.6,286047035.2,N
1499494375.4,286047036.3,N
1499494395.3,286047035.6,N
1499494415.1,286047035.4,N
1499494416.0,286047035.4,N
1499494435.8,286047038.0,N
1499494455.7,286047034.9,N
1499494475.5,286047035.5,N
1499494495.3,286047035.3,N
1499494515.2,286047035.2,N
1499494535.9,286047037.6,N
1499494555.7,286047038.0,N
1499494575.6,286047034.1,N
1499494595.4,286047033.6,N
1499494615.2,286047034.0,N
1499494635.0,286047036.3,N
1499494635.9,286047036.3,N
1499494655.8,286047034.8,N
1499494675.6,286047034.8,N
1499494695.4,286047033.7,N
1499494715.3,286047034.4,N
1499494735.1,286047034.2,N
1499494755.8,286047033.6,N
1499494775.7,286047036.2,N
1499494795.5,286047033.6,N
1499494815.3,286047033.7,N
1499494835.2,286047034.1,N
1499494855.9,286047034.3,N
1499494875.7,286047034.4,N
1499494895.6,286047031.8,N
1499494915.4,286047031.7,N
1499494935.2,286047034.1,N
1499494955.1,286047033.8,N
1499494956.0,286047033.8,N
1499494975.8,286047033.8,N
1499494995.6,286047034.0,N
1499495015.5,286047034.8,N
1499495035.3,286047030.6,N
1499495055.1,286047030.6,N
1499495075.8,286047028.6,N
1499495095.7,286047033.1,N
1499495115.5,286047030.4,N
1499495135.3,286047028.7,N
1499495155.2,286047031.4,N
1499495175.9,286047031.3,N
1499495195.7,286047033.2,N
1499495215.6,286047032.0,N
1499495235.4,286047031.2,N
1499495255.2,286047027.6,N
1499495275.1,286047028.2,N
1499495276.0,286047028.2,N
1499495295.8,286047027.7,N
1499495315.6,286047029.4,N
1499495335.5,286047030.9,N
1499495355.3,286047028.8,N
1499495375.1,286047028.6,N
1499495395.8,286047027.4,N
1499495415.7,286047027.9,N
1499495435.5,286047028.1,N
1499495455.3,286047030.0,N
1499495475.2,286047026.9,N
1499495495.0,286047028.9,N
1499495495.9,286047028.9,N
1499495515.7,286047027.5,N
1499495535.6,286047027.1,N
1499495555.4,286047029.7,N
1499495575.2,286047026.9,N
1499495595.1,286047027.4,N
1499495596.0,286047027.4,N
1499495615.8,286047029.4,N
1499495635.6,286047031.2,N
1499495655.5,286047030.8,N
1499495675.3,286047028.8,N
1499495695.1,286047028.5,N
1499495715.9,286047029.6,N
1499495735.7,286047027.7,N
1499495755.5,286047025.3,N
1499495775.4,286047027.8,N
1499495795.2,286047028.2,N
1499495815.0,286047027.1,N
1499495815.9,286047027.1,N
1499495835.8,286047030.0,N
1499495855.6,286047028.9,N
1499495875.4,286047029.9,N
1499495895.2,286047027.4,N
1499495915.2,286047027.5,N
1499495935.1,286047025.8,N
1499495936.0,286047025.8,N
1499495955.8,286047028.0,N
1499495975.6,286047027.6,N
1499495995.5,286047025.9,N
1499496015.3,286047026.6,N
1499496035.1,286047025.3,N
1499496055.9,286047026.5,N
1499496075.7,286047024.3,N
1499496095.5,286047023.8,N
1499496115.3,286047023.1,N
1499496135.2,286047025.0,N
1499496155.0,286047024.2,N
1499496155.9,286047024.2,N
1499496175.7,286047024.0,N
1499496195.6,286047026.0,N
1499496215.4,286047026.5,N
1499496235.2,286047024.5,N
1499496255.1,286047024.5,N
1499496256.0,286047024.5,N
1499496275.8,286047024.7,N
1499496295.6,286047020.7,N
1499496315.5,286047021.6,N
1499496335.3,286047021.7,N
1499496355.1,286047020.9,N
1499496375.9,286047023.4,N
1499496395.7,286047022.2,N
1499496415.5,286047019.3,N
1499496435.4,286047021.5,N
1499496455.2,286047023.6,N
1499496475.0,286047022.7,N
1499496475.9,286047022.7,N
1499496495.8,286047022.3,N
1499496515.6,286047021.7,N
1499496535.4,286047020.5,N
1499496555.2,286047020.8,N
1499496575.1,286047021.7,N
1499496576.0,286047021.7,N
1499496595.8,286047019.2,N
1499496615.6,286047017.7,N
1499496635.5,286047020.4,N
1499496655.3,286047017.4,N
1499496675.1,286047018.1,N
1499496695.9,286047018.0,N
1499496715.7,286047019.6,N
1499496735.5,286047020.0,N
1499496755.4,286047017.5,N
1499496775.2,286047017.7,N
1499496795.0,286047019.7,N
1499496795.9,286047019.7,N
1499496815.8,286047019.8,N
1499496835.6,286047017.8,N
1499496855.4,286047020.3,N
1499496875.3,286047020.4,N
1499496895.1,286047017.8,N
1499496896.0,286047017.8,N
1499496915.8,286047017.8,N
1499496935.7,286047017.3,N
1499496955.5,286047017.5,N
1499496975.3,286047018.1,N
1499496995.1,286047015.9,N
1499497015.9,286047018.2,N
1499497035.7,286047020.2,N
1499497055.5,286047020.0,N
1499497075.4,286047019.3,N
1499497095.2,286047019.9,N
1499497115.0,286047017.7,N
1499497115.9,286047017.7,N
1499497135.8,286047017.5,N
1499497155.6,286047015.8,N
1499497175.4,286047017.4,N
1499497195.3,286047019.9,N
